This is the latest recevied weather packets stored in our database for station/object KE5AKC. If no packets are shown the sender has not sent any weather packets the latest 10 day(s).
| Time | Temp. | Humidity | Pressure | Rain* | Wind** | Luminosity | Snow |
|---|---|---|---|---|---|---|---|
| 1777506746 | 27.78° C | 72% | 1009 hPa | 0 mm | - | 91 W/m² | - |
| 1777506442 | 27.78° C | 72% | 1009 hPa | 0 mm | - | 89 W/m² | - |
| 1777506138 | 27.78° C | 71% | 1009 hPa | 0 mm | - | 118 W/m² | - |
| 1777505834 | 28.33° C | 70% | 1009 hPa | 0 mm | - | 110 W/m² | - |
| 1777505530 | 28.33° C | 70% | 1009 hPa | 0 mm | - | 134 W/m² | - |
| 1777505227 | 28.33° C | 70% | 1009 hPa | 0 mm | - | 148 W/m² | - |
| 1777504924 | 28.33° C | 69% | 1009 hPa | 0 mm | - | 136 W/m² | - |
| 1777504621 | 28.89° C | 69% | 1009 hPa | 0 mm | - | 111 W/m² | - |
| 1777504316 | 28.89° C | 69% | 1008.6 hPa | 0 mm | - | 145 W/m² | - |
| 1777504012 | 28.89° C | 69% | 1008.6 hPa | 0 mm | - | 200 W/m² | - |
| 1777503709 | 28.89° C | 68% | 1009 hPa | 0 mm | - | 233 W/m² | - |
| 1777503406 | 28.89° C | 68% | 1008.3 hPa | 0 mm | - | 270 W/m² | - |
| 1777503102 | 28.89° C | 70% | 1008.3 hPa | 0 mm | - | 352 W/m² | - |
| 1777502799 | 28.33° C | 71% | 1008.3 hPa | 0 mm | - | 326 W/m² | - |
| 1777502496 | 28.33° C | 70% | 1008 hPa | 0 mm | - | 198 W/m² | - |
| 1777502193 | 28.89° C | 69% | 1008.3 hPa | 0 mm | - | 189 W/m² | - |
| 1777501891 | 28.89° C | 69% | 1009 hPa | 0 mm | - | 139 W/m² | - |
| 1777501588 | 28.89° C | 70% | 1009 hPa | 0 mm | - | 470 W/m² | - |
| 1777501285 | 29.44° C | 69% | 1009.3 hPa | 0 mm | - | 312 W/m² | - |
| 1777500982 | 28.89° C | 70% | 1009.3 hPa | 0 mm | - | 312 W/m² | - |
| 1777500680 | 28.89° C | 70% | 1009.7 hPa | 0 mm | - | 167 W/m² | - |
| 1777500376 | 28.89° C | 70% | 1009.7 hPa | 0 mm | - | 189 W/m² | - |
| 1777500072 | 29.44° C | 69% | 1009.7 hPa | 0 mm | - | 201 W/m² | - |
| 1777499769 | 29.44° C | 69% | 1009.7 hPa | 0 mm | - | 255 W/m² | - |
| 1777499466 | 30° C | 67% | 1009.7 hPa | 0 mm | - | 387 W/m² | - |
* Rain latest hour (hover to see other rain measurements)
** Current wind speed in m/s (hover to see current wind gust speed)